Location: Unspecified
(52.4292°N, 19.3359°E)
Time: 23:56:07
(UTC+02:00)

A-11 Canister half - Pass Details

Date: 24 May 2024
Orbit: 1515 x 1685 km, 47.2° (Epoch: 19 June)

Event Time Altitude Azimuth Distance (km) Brightness Sun altitude
Rises 08:34:38 0° 285° (WNW) 4,683 11.0 33.8°
Reaches altitude 10° 08:38:04 10° 276° (W) 3,687 10.6 34.3°
Maximum altitude 08:45:51 32° 218° (SW) 2,373 10.1 35.5°
Drops below altitude 10° 08:53:39 10° 160° (SSE) 3,682 11.5 36.7°
Sets 08:57:06 0° 151° (SSE) 4,675 12.1 37.2°
